FW8293 Weather Reports


time (UTC)temp
C
wind
direction
speed
KPH
gust
KPH
rain 1hr
cm
rain 24hr
cm
rain mn
cm
humidity
%
barometer
mb
20260906043040 20 213 1.6 3.2 0.00 0.64 0.00 97 1014.4
20260906041539 21 271 0.0 3.2 0.00 0.64 0.00 97 1014.6
20260906040039 20 311 0.0 3.2 0.00 0.64 0.00 97 1014.8
20260906034545 20 0 0.0 1.6 0.00 0.64 0.64 97 1014.8
20260906033038 20 207 0.0 1.6 0.00 0.64 0.64 97 1015.0
20260906031538 21 0 0.0 1.6 0.00 0.64 0.64 97 1015.3
20260906030036 20 0 0.0 0.0 0.00 0.64 0.64 97 1015.1
20260906023048 21 0 0.0 3.2 0.00 0.64 0.64 97 1014.9
20260906021537 21 221 0.0 1.6 0.00 0.64 0.64 97 1014.8
20260906020046 21 0 0.0 1.6 0.00 0.64 0.64 96 1014.6
20260906014551 21 143 3.2 3.2 0.00 0.64 0.64 97 1014.4
20260906013039 21 262 0.0 3.2 0.00 0.64 0.64 97 1014.5
20260906010039 22 0 0.0 3.2 0.00 0.64 0.64 96 1014.2
20260906004542 22 0 0.0 3.2 0.00 0.64 0.64 95 1014.0
20260906003048 22 279 0.0 1.6 0.00 0.64 0.64 95 1013.7
20260906000039 23 0 0.0 1.6 0.00 0.64 0.64 94 1013.4
20260905234538 24 0 0.0 3.2 0.00 0.64 0.64 93 1013.2
20260905230039 26 274 0.0 4.8 0.00 0.64 0.64 88 1012.8
20260905223037 27 314 0.0 4.8 0.00 0.64 0.64 82 1012.7
20260905221536 28 148 1.6 8.0 0.00 0.64 0.64 77 1012.7
20260905214538 29 318 3.2 9.7 0.00 0.64 0.64 72 1013.1
20260905211543 28 286 1.6 4.8 0.00 0.64 0.64 80 1013.2
20260905210040 28 179 0.0 8.0 0.00 0.64 0.64 77 1013.5
20260905203043 26 0 0.0 1.6 0.00 0.64 0.64 88 1013.9
20260905194545 22 269 1.6 4.8 0.00 0.64 0.64 92 1014.5
20260905184541 21 115 0.0 6.4 0.64 0.64 0.64 92 1014.5
20260905181541 23 250 4.8 25.7 0.64 0.64 0.64 88 1015.6
20260905173037 31 177 3.2 6.4 0.00 0.00 0.00 76 1014.9
20260905154538 32 353 1.6 9.7 0.00 0.00 0.00 68 1015.8
20260905150044 31 102 0.0 3.2 0.00 0.00 0.00 71 1015.5
20260905141538 29 109 0.0 3.2 0.00 0.00 0.00 77 1015.8
20260905133040 26 0 0.0 1.6 0.00 0.00 0.00 86 1016.0
20260905123038 22 128 0.0 1.6 0.00 0.00 0.00 94 1016.3
20260905114544 20 0 0.0 1.6 0.00 0.00 0.00 98 1016.1
20260905104537 19 0 0.0 1.6 0.00 0.00 0.00 98 1015.1
20260905094539 20 0 0.0 0.0 0.00 0.00 0.00 97 1015.0
20260905090038 20 0 0.0 1.6 0.00 0.00 0.00 97 1015.1
20260905080043 20 0 0.0 1.6 0.00 0.00 0.00 97 1015.6
20260905070039 21 0 0.0 0.0 0.00 0.00 0.00 97 1016.1
20260905064544 21 0 0.0 4.8 0.00 0.00 0.00 97 1016.2
20260905054538 21 0 0.0 0.0 0.00 0.00 0.00 97 1016.7
20260905044540 21 0 0.0 0.0 0.00 0.00 0.00 97 1016.7